Location: Newark
(51.0000°N, 11.4100°E)
Time: 19:30:17
(UTC+00:00)

N. Korean satellite - Pass Details

Date: 29 October 2019
Orbit: 456 x 506 km, 97.2° (Epoch: 17 November)

Event Time Altitude Azimuth Distance (km) Brightness Sun altitude
Rises 04:04:35 0° 29° (NNE) 2,591 10.7 -18.7°
Reaches altitude 10° 04:07:31 10° 56° (NE) 1,710 10.2 -18.3°
Maximum altitude 04:09:32 14° 89° (E) 1,469 10.2 -17.9°
Drops below altitude 10° 04:11:34 10° 123° (ESE) 1,712 10.2 -17.6°
Sets 04:14:29 0° 149° (SSE) 2,596 10.7 -17.2°
